DW9442 Weather Reports


time (UTC)temp
F
wind
direction
speed
knots
gust
knots
rain 1hr
in
rain 24hr
in
rain mn
in
humidity
%
barometer
mb
20260507020019 49 302 0.0 0.9 0.00 0.98 0.00 96 1012.1
20260507014556 49 302 0.0 0.0 0.00 0.98 0.00 96 1012.0
20260507013046 48 302 0.0 0.9 0.00 0.98 0.00 96 1011.9
20260507011522 49 128 0.0 0.9 0.00 0.98 0.00 96 1011.9
20260507010109 49 127 0.0 0.9 0.00 0.98 0.00 96 1011.9
20260507004549 49 128 0.0 0.9 0.00 0.98 0.00 95 1011.9
20260507003032 50 128 0.0 0.9 0.00 0.98 0.00 95 1012.0
20260507001507 50 257 0.0 0.9 0.00 0.98 0.00 95 1012.0
20260507000053 50 347 0.0 0.9 0.00 0.98 0.00 96 1012.0
20260506234530 50 332 0.0 0.9 0.00 0.98 0.00 96 1012.0
20260506233013 50 328 0.0 0.9 0.00 0.98 0.00 95 1011.9
20260506231619 50 328 0.0 0.9 0.00 0.98 0.00 95 1012.0
20260506230044 50 328 0.0 0.9 0.00 0.98 0.00 95 1012.0
20260506224528 50 328 0.0 0.0 0.00 0.98 0.00 95 1012.1
20260506223014 51 328 0.0 0.9 0.00 0.98 0.00 95 1012.0
20260506221600 51 328 0.0 0.0 0.00 0.98 0.00 95 1012.0
20260506220041 51 328 0.0 0.0 0.00 0.98 0.00 95 1011.9
20260506214521 51 328 0.0 1.7 0.00 0.98 0.98 95 1011.7
20260506213003 51 328 0.9 0.9 0.00 0.98 0.98 95 1011.7
20260506211549 51 304 0.0 1.7 0.00 0.98 0.98 95 1011.8
20260506210032 51 311 0.0 0.0 0.00 0.98 0.98 95 1011.7
20260506204516 51 311 0.0 0.0 0.00 0.98 0.98 95 1011.7
20260506203052 51 311 0.0 1.7 0.00 0.98 0.98 95 1011.5
20260506201643 52 306 0.0 0.9 0.00 0.98 0.98 95 1011.5
20260506200037 52 305 0.0 0.9 0.00 0.98 0.98 95 1011.4
20260506194505 53 262 0.0 0.9 0.00 1.00 0.98 94 1011.3
20260506193047 53 262 0.0 0.9 0.00 1.00 0.98 94 1011.2
20260506191535 54 4 0.0 0.9 0.00 1.00 0.98 94 1011.2
20260506190019 54 4 0.0 0.0 0.00 1.00 0.98 94 1011.1
20260506184625 54 4 0.0 0.9 0.00 1.06 0.98 94 1010.8
20260506183036 54 4 0.0 0.9 0.00 1.06 0.98 93 1010.8
20260506181516 55 4 0.0 0.0 0.00 1.06 0.98 93 1010.7
20260506180051 55 4 0.0 0.9 0.00 1.06 0.98 92 1010.5
20260506174532 56 108 0.0 0.9 0.00 1.09 0.98 92 1010.4
20260506173011 56 63 0.0 0.9 0.00 1.09 0.98 91 1010.4
20260506171553 56 81 0.0 1.7 0.00 1.09 0.98 91 1010.2
20260506170026 55 75 0.9 1.7 0.00 1.09 0.98 90 1010.0
20260506164505 55 51 0.0 1.7 0.00 1.11 0.98 92 1010.0
20260506163043 54 48 0.9 1.7 0.01 1.11 0.98 92 1010.0
20260506161515 54 49 2.6 4.3 0.02 1.11 0.98 92 1010.0
20260506160107 54 30 2.6 7.8 0.06 1.11 0.98 92 1010.0
20260506154523 54 63 4.3 9.6 0.10 1.11 0.98 94 1010.0
20260506153058 54 86 4.3 7.0 0.14 1.10 0.97 95 1010.3
20260506151527 54 41 0.0 7.8 0.19 1.09 0.96 95 1010.4
20260506150100 54 64 1.7 3.5 0.33 1.06 0.92 94 1010.5
20260506144532 54 90 0.9 2.6 0.35 1.01 0.87 94 1010.7
20260506143059 54 105 1.7 3.5 0.32 0.96 0.83 94 1010.4
20260506141529 54 321 0.0 2.6 0.28 0.91 0.77 94 1010.2
20260506140159 54 307 0.9 6.1 0.20 0.73 0.60 94 1010.4
20260506134525 55 282 0.9 4.3 0.17 0.67 0.53 93 1010.4
20260506133051 55 304 0.0 4.3 0.15 0.65 0.50 92 1010.5
20260506131511 56 195 0.0 4.3 0.13 0.62 0.48 92 1010.6
20260506130039 57 255 2.6 4.3 0.02 0.52 0.38 89 1010.6
20260506124507 57 105 0.0 1.7 0.00 0.51 0.35 87 1010.6
20260506123042 57 62 0.9 2.6 0.00 0.51 0.35 88 1010.5
20260506121505 57 131 1.7 3.5 0.00 0.51 0.35 87 1010.7
20260506120104 58 150 0.0 2.6 0.00 0.51 0.35 89 1010.7
20260506114509 57 117 0.0 2.6 0.01 0.61 0.35 90 1011.0
20260506113039 56 17 0.0 1.7 0.01 0.61 0.35 91 1011.0
20260506111509 55 266 0.0 1.7 0.01 0.61 0.35 91 1011.2
20260506110041 54 150 0.0 0.0 0.01 0.61 0.35 91 1011.5
20260506104511 54 150 0.0 0.9 0.00 0.62 0.35 91 1011.7
20260506103043 54 277 0.0 1.7 0.00 0.62 0.35 91 1011.8
20260506101513 54 248 0.0 0.9 0.01 0.62 0.35 91 1011.8
20260506100043 53 205 0.0 0.9 0.03 0.62 0.35 93 1011.8
20260506094526 52 241 0.9 3.5 0.04 0.62 0.35 94 1011.8
20260506093049 53 252 0.0 4.3 0.08 0.62 0.35 94 1011.8
20260506091515 53 221 1.7 7.0 0.09 0.61 0.33 94 1011.7
20260506090047 53 198 1.7 4.3 0.09 0.59 0.31 94 1011.6
20260506084523 52 233 1.7 5.2 0.13 0.57 0.31 94 1011.5
20260506083055 53 179 0.0 1.7 0.17 0.54 0.27 94 1011.5
20260506081525 52 181 0.0 1.7 0.19 0.52 0.24 94 1011.3
20260506073100 52 295 1.7 4.3 0.10 0.38 0.10 94 1011.5
20260506071517 52 335 1.7 3.5 0.05 0.32 0.05 94 1011.7
20260506070108 52 241 0.9 4.3 0.02 0.30 0.02 94 1011.7
20260506061531 52 181 0.0 0.9 0.00 0.28 0.00 95 1011.6
20260506050114 50 135 0.0 0.9 0.00 0.28 0.00 95 1011.5
20260506044536 51 81 0.0 0.9 0.00 0.28 0.00 95 1011.7
20260506043101 50 81 0.0 1.7 0.00 0.28 0.00 95 1011.7
20260506041546 51 156 0.0 0.9 0.00 0.28 0.00 95 1011.9
20260506040014 51 212 0.0 0.9 0.00 0.28 0.00 95 1012.0
20260506034543 51 212 0.0 1.7 0.00 0.28 0.00 95 1012.1
20260506033013 51 182 0.9 1.7 0.00 0.28 0.00 95 1012.1
20260506031555 51 66 0.0 0.9 0.00 0.28 0.00 95 1012.3
20260506030015 51 66 0.0 0.9 0.00 0.28 0.00 95 1012.2
20260506024545 51 66 0.0 0.9 0.00 0.28 0.00 95 1012.4
20260506023015 51 51 1.7 2.6 0.00 0.28 0.00 95 1012.4
20260506021545 51 95 0.9 0.9 0.00 0.28 0.00 95 1012.5